Location: Newark
(47.3150°N, 5.1150°E)
Time: 01:30:14
(UTC+00:00)

AO-7 - Pass Details

Date: 19 December 2019
Orbit: 1440 x 1458 km, 101.8° (Epoch: 23 January)

Event Time Altitude Azimuth Distance (km) Brightness Sun altitude
Rises 04:15:19 0° 17° (NNE) 4,564 ? -30.5°
Reaches altitude 10° 04:18:07 10° 15° (NNE) 3,585 ? -30.0°
Maximum altitude 04:26:22 67° 296° (WNW) 1,566 ? -28.6°
Enters shadow 04:29:25 42° 231° (SW) 1,972 ? -28.1°
